Regional Weather Roundup
Issued by NWS New Orleans/Baton Rouge, LA

Home | Current Version | Previous Version | Graphics & Text | Print | Product List | Glossary On
Versions: 1 2 3 4 5 6 7 8 9 10 11 12 13 14 15 16 17 18 19 20 21 22 23 24 25 26 27 28 29 30 31 32 33 34 35 36 37 38 39 40 41 42 43 44 45 46 47 48 49 50
599
ASUS44 KLIX 271305
RWRLIX
NEW ORLEANS REGIONAL WEATHER ROUNDUP
NATIONAL WEATHER SERVICE NEW ORLEANS LA
700 AM CST FRI FEB 27 2015

NOTE: "FAIR" INDICATES FEW OR NO CLOUDS BELOW 12,000 FEET WITH NO
      SIGNIFICANT WEATHER AND/OR OBSTRUCTIONS TO VISIBILITY.
      SKY/WX - SKY CONDITION AND SIGNIFICANT WEATHER.
      TMP - AIR TEMPERATURE.     DP    - DEWPOINT TEMPERATURE.
      RH  - RELATIVE HUMIDITY.   PRES  - PRESSURE.
      HI  - HEAT INDEX.          WCI   - WIND CHILL INDEX.

*  THESE STATIONS ARE NOT NWS OR FAA STATIONS AND ARE NOT UNDER
   NWS QUALITY CONTROL.

LAZ038-040-048-061>063-065>067-069-271400-
SOUTHEAST LOUISIANA

CITY           SKY/WX    TMP DP  RH WIND       PRES   REMARKS
N.O. AUDUBON     N/A     37  33  84 MISG        N/A
N.O. INTL ARPT MOCLDY    37  30  75 NE20G25   30.39R WCI  27
N.O. LAKEFRONT PTCLDY    39  32  76 NE21G28   30.40R WCI  29
SLIDELL        CLEAR     32  29  88 N8        30.39R WCI  25
BATON ROUGE    CLOUDY    35  29  78 NE5       30.39R WCI  31
BOOTHVILLE     MOCLDY    43  36  76 NE14G24   30.34R
BELLE CHASSE   MOCLDY    36  29  75 NE10G20   30.38R HAZE    WCI  28
BOGALUSA*        N/A     34  30  86 NE5       30.42R WCI  30
GALLIANO*      CLOUDY    39  34  80 N10G17    30.37R WCI  33
NEW ROADS*     CLOUDY    35  29  79 N9        30.40R WCI  28
GONZALES*      PTSUNNY   35  32  88 NE3       30.38S
HAMMOND*       CLEAR     34  28  80 CALM      30.41S
HOUMA*         NOT AVBL
PORT FOURCHON* CLOUDY    41  36  81 NE22G31   30.37R

$$

MSZ070-080>082-271400-
SOUTHERN MISSISSIPPI

CITY           SKY/WX    TMP DP  RH WIND       PRES   REMARKS
MCCOMB         CLOUDY    33  27  78 NE7       30.39S WCI  27
GULFPORT       CLEAR     32  28  85 N9        30.39R WCI  24
BILOXI         CLEAR     33  30  88 NE12      30.38R WCI  24
PASCAGOULA     CLEAR     32  29  88 N10       30.39R WCI  24
STENNIS ARPT*  CLEAR     32  27  80 N7        30.40  WCI  26

$$

COASTAL OBSERVATIONS
LAKE AND NEARSHORE STATIONS

STATION/POSITION TIME  TEMP    WIND        PRES    WAVE
                       AIR SEA DIR/SP/G            HT/PER
                 (UTC) (F)     (DEG/KT/KT) (MB)    (FT/S)
PASCAGOULA       1300   33      30/ 11/ 16 1027.7
WAVELAND YACHT   1300   34 45   30/ 14/ 17 1028.5
GRAND ISLE       1300   40 50   50/ 19/ 24 1026.8
SOUTHWEST PASS   1300   48 48   30/ 22/ 24 1026.6
NEW CANAL        1300   38      50/ 21/ 25 1029.0
SHELL BEACH      1300   38 48   40/ 23/ 27 1027.9

OFFSHORE STATIONS

STATION/POSITION TIME  TEMP    WIND        PRES    WAVE
                       AIR SEA DIR/SP/G            HT/PER
                 (UTC) (F)     (DEG/KT/KT) (MB)    (FT/S)
64 S DAUPHIN ISL 1249   46 64   30/ 23/ 29 1026.3    6/ 6

$$




USA.gov is the U.S. government's official web portal to all federal, state and local government web resources and services.